Starlink 31036

operational
NORAD ID: 58533 Int'l Des: 2023-192 Owner: SPXS Country: US Constellation: starlink
LEOCIRCULAR

About Starlink 31036

Description loading...

Live Position

Loading 3D Globe...

Upcoming Passes

Altitude History

Altitude vs Time

uPlot chart will show altitude changes over time

Two-Line Element Set

1 58533U 23192C 25351.01116296 .00000233 00000-0 19993-4 0 9996
2 58533 53.1599 87.0403 0001100 84.4930 275.6196 15.30197516113324
Epoch: Dec 17, 2025 • Age: 20 hours

Current Status

Altitude 492.0 km
Velocity 7.62 km/s
Sub-Earth Point -46.97°S, 72.78°W
Launch Date Dec 8, 2023
Age 2 years
Type internet

Technical Details

Classification Payload
Mass 730.00 kg
Dry Mass 700.00 kg
Total Mass 730.00 kg
Length 0.30 m
Diameter 4.10 m
Span 29.00 m
Shape Box + pan
Manufacturer SPXS
Bus Type Starlink V2M
Phase Status In Orbit
Owner/State SPXS/US

Large Constellations

Loading constellations...